[[{"header":{"parameterUnit":"m.s-1","parameterCategory":1,"la1":30.2992,"la2":30.254,"lo1":-89.0895,"lo2":-89.0443,"dy":0.0025,"dx":0.0025,"nx":19,"ny":19,"refTime":"2026-04-28T21:00:00:Z","depth":0,"parameterNumber":2,"parameterNumberName":"U-component_of_WINDS"},"data":[0,0,0,-1.7954,-1.7953,-1.7945,-1.7945,-1.7938,-1.7938,0,0,0,0,0,0,0,0,0,0,0,-1.7958,-1.7958,-1.7954,-1.7953,-1.7945,-1.7945,-1.7938,-1.7938,0,0,0,0,0,0,0,0,0,0,0,-1.7958,-1.7958,-1.7958,-1.7953,-1.7945,-1.7945,-1.7938,-1.7943,0,0,0,0,0,0,0,0,0,0,-1.795,-1.7957,-1.7958,-1.7958,-1.7953,-1.7945,-1.7945,-1.7943,-1.7943,-1.7943,0,-1.7945,0,-1.7941,-1.7938,-1.7938,0,0,0,-1.7952,-1.7957,-1.7953,-1.7958,-1.7953,-1.7945,-1.7948,-1.7943,-1.7942,-1.7943,-1.7945,-1.7944,-1.7941,-1.7938,-1.7938,-1.7949,-1.7949,0,0,-1.7952,-1.7958,-1.7954,-1.7953,-1.7954,-1.7949,-1.7948,-1.7943,-1.7945,-1.7944,-1.7944,-1.7941,-1.7938,-1.7938,-1.7948,-1.7949,0,0,0,-1.7955,-1.7958,-1.7954,-1.7953,-1.7952,-1.7948,-1.7948,-1.7945,-1.7943,-1.7944,-1.7941,-1.7938,-1.7938,-1.7948,-1.7948,-1.796,0,0,0,-1.7955,-1.7959,-1.7954,-1.7958,-1.7952,-1.7948,-1.795,-1.7943,-1.7943,-1.7941,-1.7938,-1.7938,-1.7948,-1.7948,-1.7959,-1.7964,0,0,0,-1.7958,-1.796,-1.7959,-1.7958,-1.7955,-1.7948,-1.7946,-1.7943,-1.7941,-1.7938,-1.7938,-1.7948,-1.7948,-1.7959,-1.7963,-1.7968,0,0,0,-1.7963,-1.7969,-1.796,-1.7966,-1.7955,-1.7956,-1.7946,-1.7946,-1.7945,-1.7938,-1.7948,-1.7948,-1.7958,-1.7962,-1.7967,-1.7973,-1.7975,0,0,-1.7974,-1.7971,-1.7974,-1.7965,-1.7969,-1.7956,-1.7962,-1.7955,-1.795,-1.7949,-1.795,-1.7959,-1.7963,-1.7968,-1.7992,-1.7994,0,0,0,-1.798,-1.7982,-1.7982,-1.7981,-1.7977,-1.7974,-1.7966,-1.7964,-1.7963,-1.7951,-1.7963,-1.7965,-1.7968,-1.797,-1.7972,-1.7974,-1.795,-1.795,-1.795,-1.8002,-1.7996,-1.8001,-1.7994,-1.7994,-1.7987,-1.7986,-1.7982,-1.7975,-1.7978,-1.7977,-1.7993,-1.7995,-1.7997,-1.7999,-1.798,-1.798,-1.7981,-1.7981,-1.8017,-1.8019,-1.8012,-1.8014,-1.8008,-1.801,-1.8004,-1.7999,-1.8,-1.7992,-1.7994,-1.7985,-1.8,-1.8001,-1.7981,-1.7981,-1.7981,-1.7981,-1.7981,-1.803,-1.803,-1.8028,-1.8028,-1.8028,-1.8021,-1.8023,-1.8017,-1.8012,-1.8014,-1.8012,-1.8012,-1.8011,-1.8014,-1.8014,-1.8014,-1.8014,-1.8014,-1.8014,-1.8044,-1.8041,-1.8043,-1.8041,-1.804,-1.8039,-1.8034,-1.8033,-1.8031,-1.8026,-1.8026,-1.8019,-1.8003,-1.7998,-1.8015,-1.8015,-1.8015,-1.8015,-1.8015,-1.8059,-1.8055,-1.8058,-1.8058,-1.8055,-1.8056,-1.805,-1.8049,-1.8048,-1.8049,-1.8043,-1.8032,-1.8028,-1.8026,-1.8022,-1.8044,-1.8044,-1.8044,-1.8044,-1.8069,-1.8068,-1.807,-1.807,-1.8069,-1.8064,-1.8068,-1.8065,-1.806,-1.8059,-1.8056,-1.8051,-1.8049,-1.8046,-1.8044,-1.804,-1.8066,-1.8066,-1.8066,-1.8078,-1.8077,-1.808,-1.8077,-1.8075,-1.8073,-1.8077,-1.8077,-1.8072,-1.8067,-1.8058,-1.8057,-1.8049,-1.8047,-1.804,-1.8037,-1.803,0,0]},{"header":{"parameterUnit":"m.s-1","parameterCategory":1,"la1":30.2992,"la2":30.254,"lo1":-89.0895,"lo2":-89.0443,"dy":0.0025,"dx":0.0025,"nx":19,"ny":19,"refTime":"2026-04-28T21:00:00:Z","depth":0,"parameterNumber":3,"parameterNumberName":"V-component_of_WINDS"},"data":[0,0,0,5.1145,5.1144,5.1078,5.1078,5.0987,5.0986,0,0,0,0,0,0,0,0,0,0,0,5.1163,5.1163,5.1145,5.1144,5.1078,5.1077,5.0987,5.0986,0,0,0,0,0,0,0,0,0,0,0,5.1163,5.1163,5.1162,5.1143,5.1078,5.1077,5.0987,5.1038,0,0,0,0,0,0,0,0,0,0,5.1103,5.1119,5.1163,5.1162,5.1143,5.1078,5.1077,5.1041,5.1035,5.1015,0,5.0998,0,5.0991,5.098,5.0979,0,0,0,5.1144,5.1124,5.1108,5.1162,5.1142,5.1078,5.1107,5.1038,5.1031,5.1007,5.0997,5.0994,5.099,5.0979,5.0979,5.0868,5.0868,0,0,5.1147,5.115,5.1113,5.1104,5.1117,5.111,5.1105,5.1034,5.1022,5.0997,5.0992,5.0988,5.0978,5.0978,5.0869,5.0868,0,0,0,5.1158,5.1152,5.1138,5.1107,5.1096,5.1108,5.1103,5.1025,5.1021,5.0991,5.0987,5.0978,5.0977,5.0869,5.0869,5.0847,0,0,0,5.116,5.1158,5.114,5.114,5.1098,5.106,5.1096,5.1026,5.1017,5.0987,5.0978,5.0976,5.087,5.0869,5.0849,5.0835,0,0,0,5.1168,5.1159,5.115,5.1141,5.1113,5.1062,5.1053,5.1024,5.1015,5.0979,5.0976,5.087,5.0869,5.085,5.0838,5.0808,0,0,0,5.1176,5.1128,5.1149,5.1095,5.1113,5.105,5.1053,5.1005,5.0972,5.0977,5.087,5.0869,5.0851,5.084,5.081,5.0783,5.0773,0,0,5.1117,5.1121,5.1089,5.1106,5.104,5.106,5.0989,5.0955,5.0947,5.0894,5.0892,5.0848,5.0838,5.0809,5.0713,5.0705,0,0,0,5.1071,5.1048,5.103,5.1001,5.0976,5.0954,5.093,5.0918,5.0874,5.0922,5.0829,5.0823,5.0806,5.0793,5.0786,5.077,5.0863,5.0863,5.0863,5.0989,5.0987,5.0933,5.0923,5.0894,5.0873,5.0849,5.0828,5.083,5.0808,5.0792,5.0735,5.072,5.0715,5.0699,5.0778,5.0778,5.0778,5.0778,5.0903,5.087,5.0878,5.083,5.0826,5.0784,5.0762,5.0766,5.0725,5.0746,5.073,5.0753,5.0706,5.0692,5.0776,5.0777,5.0777,5.0777,5.0777,5.0848,5.0832,5.0821,5.078,5.0749,5.0739,5.0702,5.0699,5.0695,5.068,5.0663,5.0663,5.0663,5.0673,5.0672,5.0672,5.0672,5.0672,5.0672,5.0796,5.0784,5.0754,5.0727,5.0709,5.0685,5.0666,5.0647,5.0625,5.0626,5.0626,5.063,5.0703,5.0721,5.0669,5.0669,5.067,5.067,5.067,5.0708,5.0729,5.0682,5.0665,5.0634,5.0604,5.0602,5.0565,5.055,5.0531,5.054,5.0595,5.0597,5.0603,5.0618,5.0541,5.0541,5.0541,5.0541,5.0662,5.0665,5.0619,5.0592,5.0564,5.056,5.0506,5.0491,5.0477,5.0467,5.0478,5.0498,5.0504,5.0503,5.0511,5.0525,5.0427,5.0427,5.0427,5.0608,5.0609,5.0565,5.0556,5.0532,5.0511,5.0461,5.0428,5.0416,5.0422,5.046,5.0464,5.0497,5.0507,5.0511,5.0523,5.0549,0,0]}]]